User: anonymous   Login
Location: Hamilton
(37.7830°S, 175.2830°E)
Time: 15:25:19
(UTC+13:00)
Language:

SL-16 R/B - Orbit

View from above orbital plane
View from above orbital plane
View from above satellite
View from above satellite

Ground track
Ground track

The orbit data is extracted from the following two-line orbital elements,

1 31793U 07029B   19288.73983366  .00000249  00000-0  15476-3 0  9995
2 31793  70.9771  42.5105 0002464 271.1270 192.3563 14.14417820634980
Epoch (UTC): 15 October 2019 17:45:21
Eccentricity: 0.0002464
inclination: 70.9771°
perigee height: 842 km
apogee height: 846 km
right ascension of ascending node: 42.5105°
argument of perigee: 271.1270°
revolutions per day: 14.14417820
mean anomaly at epoch: 192.3563°
orbit number at epoch: 63498

The dashed part of the orbit path shows where the satellite is in the earth's shadow,  

DLR